CAPE
0 0 0 0 0 0 0 0 0 62 30 149 92 69 196 373 510 728 340 478 481 374 320 155 72 305 623 613 712 558 833 710
0 0 0 0 0 0 0 0 0 15 28 71 190 137 247 315 757 961 623 532 563 458 337 277 229 202 574 624 592 678 481 973
0 0 0 0 0 0 0 0 0 0 0 323 49 27 102 88 928 1049 866 648 666 554 461 448 353 418 574 555 606 660 425 595
0 0 0 0 0 0 0 0 0 0 0 330 178 20 56 258 225 937 924 747 526 695 571 687 567 576 1071 786 997 930 942 789
0 0 0 0 0 0 0 0 0 2 10 95 94 102 149 526 657 643 525 872 706 881 781 834 817 646 993 1158 1315 1411 1248 1317
0 0 0 0 0 0 0 0 0 0 76 155 36 11 105 524 781 800 789 777 902 924 831 985 860 850 868 1509 1358 1551 1634 1531
0 0 0 0 0 0 0 0 0 27 99 75 30 24 11 58 748 770 601 572 616 1172 1078 863 1664 1115 998 1131 1414 1597 1577 1721
0 10 17 0 0 0 1 0 0 0 0 4 473 245 10 354 340 646 214 3 155 776 1620 1737 2157 1998 1606 1342 1602 1759 1537 1441
0 0 0 0 10 18 0 14 0 20 154 268 583 481 185 323 58 31 2 25 231 756 1508 1931 2075 2381 2503 1883 2154 1968 2689 1846
0 0 0 0 0 0 0 125 373 380 288 378 498 514 381 327 198 172 89 13 326 1096 1195 2214 2485 2911 2636 2956 2655 2575 2615 2441
0 0 0 0 0 0 12 134 235 316 371 359 693 660 626 391 277 84 19 39 80 259 760 1332 2632 2871 2810 2903 2852 2630 2698 2397
5 2 2 1 8 19 99 97 205 209 285 266 189 424 581 289 194 172 680 563 424 423 724 689 1612 2947 3039 2984 3199 2786 2785 2585
9 46 116 53 14 16 146 31 60 170 257 394 274 261 827 486 213 94 90 167 515 155 112 490 808 1843 2969 3008 3134 2938 2949 2827
55 84 92 150 5 9 55 10 0 48 108 254 303 260 175 976 379 136 47 45 146 62 223 412 555 1133 2713 2908 2996 2959 2968 2765
67 35 330 210 172 243 58 31 70 0 8 2 22 75 133 248 517 422 304 683 342 129 0 13 84 1019 2672 2941 3019 2863 2663 2360
6 136 66 242 184 174 105 236 233 200 23 2 0 7 4 59 286 829 488 264 327 161 0 1 59 1366 2707 2784 2676 2198 2504 2064
0 44 0 96 33 20 24 28 52 98 0 0 1 34 31 65 208 648 741 660 393 261 167 51 778 1668 2283 2322 2188 2116 2183 1876
3 0 7 0 0 1 3 28 32 58 0 0 7 58 43 57 272 390 554 1041 873 355 451 224 91 291 1935 2399 2043 1815 1639 1329
0 0 0 0 0 0 0 0 29 0 0 0 0 58 97 105 304 227 729 681 1489 1847 1531 847 432 645 525 1360 1694 1586 1183 1053
CIN
-0 -0 -0 -0 -0 -0 -0 -0 -0 -18 -20 -61 -157 -70 -346 -72 -77 -61 -68 -142 -100 -62 -30 -30 -108 -197 -207 -174 -138 -121 -87 -55
-0 -0 -0 -0 -0 -0 -0 -0 -0 -16 -25 -36 -44 -24 -367 -183 -31 -29 -25 -89 -80 -89 -54 -47 -30 -41 -209 -194 -196 -147 -136 -74
-0 -0 -0 -0 -0 -0 -0 -0 -0 -0 -0 -96 -140 -196 -121 -119 -28 -34 -40 -43 -136 -99 -81 -137 -139 -184 -220 -230 -202 -169 -175 -131
-0 -0 -0 -0 -0 -0 -0 -0 -0 -0 -0 -103 -213 -9 -48 -6 -33 -62 -47 -35 -29 -118 -130 -112 -94 -131 -148 -201 -188 -181 -140 -133
-0 -0 -0 -0 -0 -0 -0 -0 -0 -33 -41 -64 -72 -118 -84 -61 -113 -124 -91 -41 -50 -76 -111 -88 -85 -114 -129 -179 -149 -132 -117 -111
-0 -0 -0 -0 -0 -0 -0 -0 -0 -0 -45 -21 -46 -49 -11 -44 -56 -90 -102 -77 -37 -59 -102 -60 -73 -108 -119 -135 -130 -120 -92 -88
-0 -0 -0 -0 -0 -0 -0 -0 -0 -41 -14 -35 -11 -51 -24 -160 -338 -86 -61 -48 -32 -48 -62 -72 -135 -110 -123 -99 -97 -101 -78 -55
-0 -167 -127 -0 -3 -0 -94 -1 -0 -0 -0 -91 -118 -43 -19 -281 -183 -69 -32 -107 -320 -53 -44 -114 -109 -127 -120 -98 -110 -64 -71 -67
-0 -0 -0 -0 -154 -110 -0 -43 -3 -40 -138 -255 -235 -114 -359 -303 -430 -21 -489 -483 -377 -67 -60 -80 -93 -85 -107 -103 -113 -81 -68 -93
-0 -0 -0 -0 -0 -0 -0 -20 -63 -69 -74 -175 -148 -144 -330 -454 -207 -405 -70 -371 -273 -62 -28 -64 -95 -92 -86 -90 -78 -75 -47 -26
-0 -0 -0 -0 -0 -0 -107 -98 -64 -37 -48 -111 -105 -103 -68 -55 -78 -155 -307 -310 -478 -404 -38 -53 -72 -74 -87 -60 -66 -54 -56 -58
-1 -2 -0 -7 -52 -65 -59 -64 -87 -68 -17 -108 -54 -117 -64 -80 -89 -63 -95 -139 -322 -246 -31 -57 -47 -101 -72 -51 -41 -44 -39 -35
-10 -5 -48 -59 -37 -50 -47 -84 -65 -87 -49 -39 -42 -34 -44 -82 -73 -188 -64 -98 -45 -18 -286 -42 -24 -7 -86 -46 -33 -35 -22 -26
-56 -38 -25 -111 -15 -19 -96 -6 -0 -14 -41 -42 -18 -6 -44 -66 -80 -44 -428 -379 -458 -50 -35 -47 -41 -10 -67 -50 -44 -22 -16 -14
-10 -12 -36 -99 -44 -34 -99 -125 -110 -0 -16 -35 -27 -12 -0 -87 -14 -35 -151 -75 -58 -114 -13 -174 -34 -0 -22 -39 -20 -3 -7 -30
-82 -57 -132 -49 -14 -17 -15 -15 -38 -96 -137 -37 -0 -197 -61 -65 -13 -20 -92 -66 -44 -83 -2 -0 -46 -1 -46 -11 -1 -17 -28 -42
-0 -44 -0 -91 -147 -131 -47 -65 -53 -87 -0 -0 -38 -161 -94 -59 -40 -29 -39 -35 -40 -40 -46 -19 -13 -20 -44 -41 -34 -20 -21 -47
-0 -0 -1 -0 -0 -43 -33 -72 -44 -66 -0 -0 -28 -47 -63 -69 -44 -54 -39 -39 -24 -33 -58 -64 -92 -27 -13 -23 -40 -41 -52 -90
-0 -0 -0 -0 -0 -0 -0 -0 -30 -0 -0 -0 -1 -18 -48 -66 -48 -12 -17 -59 -28 -7 -17 -95 -64 -0 -84 -8 -23 -19 -70 -57
Wind_Speed
nan nan nan nan nan nan nan nan nan nan nan 28 nan nan 26 20 20 18 20 29 30 31 28 24 nan 20 19 15 12 9 8 8
nan nan nan nan nan nan nan nan nan nan nan nan 30 45 31 9 23 28 19 16 25 27 27 26 24 16 17 14 13 10 8 8
nan nan nan nan nan nan nan nan nan nan nan 25 nan nan 38 nan 25 37 31 22 18 22 26 24 27 20 17 16 11 7 11 11
nan nan nan nan nan nan nan nan nan nan nan 20 36 nan nan 41 32 38 32 31 24 27 24 23 27 26 22 20 14 13 12 10
nan nan nan nan nan nan nan nan nan nan nan nan nan 35 29 41 27 27 24 21 33 31 27 23 24 25 23 20 18 14 12 10
nan nan nan nan nan nan nan nan nan nan nan 20 nan nan 23 24 35 48 27 31 37 25 29 24 19 19 22 18 16 14 11 8
nan nan nan nan nan nan nan nan nan nan nan nan nan nan nan nan 39 40 48 30 41 31 12 22 17 14 15 18 14 14 12 8
nan nan nan nan nan nan nan nan nan nan nan nan 33 28 nan 46 47 46 42 nan 24 18 9 13 17 15 11 13 17 16 15 11
nan nan nan nan nan nan nan nan nan nan 42 50 54 62 62 51 nan nan nan nan 33 16 13 10 13 14 13 12 14 15 17 16
nan nan nan nan nan nan nan 42 55 58 63 64 56 64 67 66 62 48 nan nan 20 24 20 14 14 18 19 16 13 11 10 12
nan nan nan nan nan nan nan 51 67 62 59 56 60 56 63 62 64 nan nan nan nan 35 34 37 13 21 23 18 16 11 9 8
nan nan nan nan nan nan nan nan 62 70 63 65 56 50 57 66 56 56 54 52 42 45 54 46 33 24 25 20 17 14 11 10
nan nan 46 nan nan nan 39 nan nan 53 56 61 57 56 49 58 58 nan nan 48 46 53 54 44 39 33 27 23 19 17 18 19
nan nan nan 46 nan nan nan nan nan nan 51 48 53 57 55 59 57 45 nan nan 57 nan 63 58 43 39 17 21 25 23 22 21
nan nan 38 38 31 35 nan nan nan nan nan nan nan nan 51 52 37 45 52 56 59 73 nan nan nan 29 18 24 26 24 26 25
nan 28 nan 30 39 38 34 35 39 44 nan nan nan nan nan nan 32 42 51 50 59 36 nan nan nan 7 28 31 30 28 29 27
nan nan nan nan nan nan nan nan nan nan nan nan nan nan nan nan 42 32 52 42 43 41 29 nan 29 41 35 32 31 30 30 28
nan nan nan nan nan nan nan nan nan nan nan nan nan nan nan nan 29 29 30 42 29 31 18 26 nan 33 27 30 31 35 31 28
nan nan nan nan nan nan nan nan nan nan nan nan nan nan nan 37 39 31 25 29 33 39 31 24 34 48 46 38 32 33 32 29
Wind_Direction
nan nan nan nan nan nan nan nan nan nan nan 300 nan nan 357 68 41 21 339 337 350 344 338 336 nan 330 325 317 325 328 325 312
nan nan nan nan nan nan nan nan nan nan nan nan 306 318 342 262 356 13 348 341 344 347 347 341 332 329 325 318 327 326 315 306
nan nan nan nan nan nan nan nan nan nan nan 313 nan nan 326 nan 4 349 348 339 334 346 344 346 339 326 320 326 318 319 310 307
nan nan nan nan nan nan nan nan nan nan nan 310 321 nan nan 335 347 328 341 336 321 335 334 334 341 338 326 320 326 314 312 303
nan nan nan nan nan nan nan nan nan nan nan nan nan 284 289 287 280 283 276 280 312 317 322 326 333 340 326 328 323 322 322 302
nan nan nan nan nan nan nan nan nan nan nan 258 nan nan 295 279 289 296 272 266 260 303 314 305 316 323 328 322 323 329 326 323
nan nan nan nan nan nan nan nan nan nan nan nan nan nan nan nan 291 289 291 281 263 238 295 295 281 306 315 322 307 317 320 318
nan nan nan nan nan nan nan nan nan nan nan nan 252 265 nan 291 298 293 300 nan 294 234 181 284 282 293 294 303 300 296 306 316
nan nan nan nan nan nan nan nan nan nan 238 239 232 239 245 253 nan nan nan nan 293 285 239 251 273 272 275 291 284 289 277 282
nan nan nan nan nan nan nan 224 226 235 240 247 249 255 254 255 257 268 nan nan 286 269 215 214 251 263 257 255 274 281 273 277
nan nan nan nan nan nan nan 231 230 233 222 233 241 257 251 253 254 nan nan nan nan 234 223 207 205 261 263 255 247 254 267 277
nan nan nan nan nan nan nan nan 231 231 231 220 233 235 248 253 259 263 258 255 250 251 252 205 170 258 265 260 261 268 257 268
nan nan 265 nan nan nan 237 nan nan 238 238 234 237 235 238 243 243 nan nan 263 261 266 276 254 184 167 259 257 262 254 256 258
nan nan nan 260 nan nan nan nan nan nan 246 243 236 235 239 247 252 255 nan nan 257 nan 251 248 204 169 233 252 251 254 255 255
nan nan 267 270 264 260 nan nan nan nan nan nan nan nan 242 243 268 249 253 265 269 264 nan nan nan 145 224 240 249 252 256 254
nan 278 nan 275 269 261 251 252 259 259 nan nan nan nan nan nan 259 257 274 269 265 269 nan nan nan 149 227 236 243 249 248 253
nan nan nan nan nan nan nan nan nan nan nan nan nan nan nan nan 232 259 261 274 286 290 287 nan 180 188 224 241 250 252 250 252
nan nan nan nan nan nan nan nan nan nan nan nan nan nan nan nan 247 245 259 277 286 289 295 207 nan 172 218 232 250 253 251 256
nan nan nan nan nan nan nan nan nan nan nan nan nan nan nan 237 246 224 258 241 233 261 270 272 264 251 251 206 221 238 249 253